This is the latest recevied weather packets stored in our database for station/object IW2NTF-3. If no packets are shown the sender has not sent any weather packets the latest 10 day(s).
| Time | Temp. | Humidity | Pressure | Rain* | Wind** | Luminosity | Snow |
|---|---|---|---|---|---|---|---|
| 1777552684 | 19.44° C | 45% | 1023.7 hPa | 0 mm | - | 373 W/m² | - |
| 1777552623 | 20° C | 44% | 1023.7 hPa | 0 mm | - | 373 W/m² | - |
| 1777552563 | 20° C | 44% | 1023.7 hPa | 0 mm | - | 935 W/m² | - |
| 1777552503 | 20° C | 45% | 1023.8 hPa | 0 mm | - | 935 W/m² | - |
| 1777552443 | 19.44° C | 44% | 1023.8 hPa | 0 mm | - | 935 W/m² | - |
| 1777552384 | 19.44° C | 44% | 1023.7 hPa | 0 mm | - | 969 W/m² | - |
| 1777552324 | 19.44° C | 44% | 1023.8 hPa | 0 mm | - | 821 W/m² | - |
| 1777552263 | 19.44° C | 45% | 1023.8 hPa | 0 mm | - | 821 W/m² | - |
| 1777552203 | 19.44° C | 45% | 1023.7 hPa | 0 mm | - | 898 W/m² | - |
| 1777552143 | 18.89° C | 45% | 1023.7 hPa | 0 mm | - | 909 W/m² | - |
| 1777552083 | 18.89° C | 45% | 1023.8 hPa | 0 mm | - | 921 W/m² | - |
| 1777552024 | 18.89° C | 44% | 1023.9 hPa | 0 mm | - | 895 W/m² | - |
| 1777551963 | 19.44° C | 44% | 1023.9 hPa | 0 mm | - | 863 W/m² | - |
| 1777551903 | 19.44° C | 44% | 1023.8 hPa | 0 mm | - | 879 W/m² | - |
| 1777551843 | 19.44° C | 45% | 1023.8 hPa | 0 mm | - | 877 W/m² | - |
| 1777551783 | 19.44° C | 45% | 1023.8 hPa | 0 mm | - | 884 W/m² | - |
| 1777551723 | 19.44° C | 44% | 1023.8 hPa | 0 mm | - | 875 W/m² | - |
| 1777551664 | 19.44° C | 44% | 1023.8 hPa | 0 mm | - | 874 W/m² | - |
| 1777551603 | 19.44° C | 44% | 1023.9 hPa | 0 mm | - | 875 W/m² | - |
| 1777551543 | 19.44° C | 45% | 1023.9 hPa | 0 mm | - | 877 W/m² | - |
| 1777551483 | 19.44° C | 44% | 1023.9 hPa | 0 mm | - | 868 W/m² | - |
| 1777551423 | 19.44° C | 44% | 1023.8 hPa | 0 mm | - | 874 W/m² | - |
| 1777551363 | 19.44° C | 43% | 1023.8 hPa | 0 mm | - | 886 W/m² | - |
| 1777551303 | 19.44° C | 43% | 1023.8 hPa | 0 mm | - | 884 W/m² | - |
| 1777551243 | 19.44° C | 43% | 1024 hPa | 0 mm | - | 891 W/m² | - |
* Rain latest hour (hover to see other rain measurements)
** Current wind speed in m/s (hover to see current wind gust speed)